Flag for Germany Weather past 2 weeks in Wesel, North Rhine-Westphalia, Germany

Now
43 °F

Clear.


Feels Like: 43 °F
Forecast: 40 / 62 °F
Wind: No wind

Location: Niederrhein

Current Time: Apr 21, 2015 at 8:19:54 AM

Latest Report: Apr 21, 2015 at 7:50 AM


Visibility: 10 mi

Pressure: 30.45 "Hg

Humidity: 93%

Dew point: 41 °F

Location of WeselLocation

Historic Weather in Wesel — Graph

°F

Wesel temperature yesterday

Maximum temperature yesterday: 64 °F (at 3:20 PM)
Minimum temperature yesterday: 41 °F (at 6:50 AM)
Average temperature yesterday: 56 °F

Past Weeks' High & Low Weather Summary

 TemperatureHumidityPressure
High75 °F (Apr 15, 3:20 PM)100% (Apr 7, 6:50 AM)30.63 "Hg (Apr 7, 6:50 AM)
Low30 °F (Apr 7, 5:50 AM)16% (Apr 10, 5:20 PM)29.95 "Hg (Apr 11, 4:50 AM)
Average53 °F63%30.27 "Hg
* Reported Apr 6 6:20 AM — Apr 21 6:50 AM, Wesel, Weather by CustomWeather, © 2015

Note: Actual official high and low records may vary slightly from our data, if they occured in-between our weather recording intervals... More about our weather records

Advertising

Wesel weather history for previous 24 hours

 ConditionsComfort  
Time TempWeatherWind HumidityBarometerVisibility
6:50 AM
Tue, Apr 21
39 °FClear.3 mph100%30.42 "Hg10 mi
6:20 AM37 °FClear.No wind100%30.42 "Hg10 mi
5:50 AM39 °FClear.No wind87%30.42 "Hg10 mi
5:20 AM43 °FClear.No wind87%30.42 "Hg10 mi
4:50 AM43 °FClear.No wind87%30.42 "Hg10 mi
11:50 PM
Mon, Apr 20
52 °FClear.3 mph58%30.39 "Hg10 mi
11:20 PM54 °FClear.3 mph58%30.39 "Hg10 mi
10:50 PM55 °FClear.3 mph55%30.39 "Hg10 mi
10:20 PM57 °FSunny.2 mph51%30.39 "Hg10 mi
9:50 PM57 °FPassing clouds.6 mph51%30.39 "HgN/A
9:20 PM59 °FSunny.2 mph48%30.36 "Hg10 mi
8:50 PM61 °FSunny.2 mph48%30.36 "Hg10 mi
8:20 PM63 °FSunny.2 mph45%30.36 "Hg10 mi
7:50 PM64 °FSunny.3 mph43%30.36 "Hg10 mi
7:20 PM64 °FPassing clouds.6 mph40%30.36 "HgN/A
6:50 PM64 °FPassing clouds.6 mph40%30.36 "HgN/A
6:20 PM64 °FPassing clouds.8 mph37%30.36 "HgN/A
5:50 PM64 °FPassing clouds.9 mph37%30.36 "HgN/A
5:20 PM64 °FPassing clouds.8 mph37%30.36 "HgN/A
4:50 PM64 °FPassing clouds.9 mph34%30.36 "HgN/A
4:20 PM64 °FPassing clouds.7 mph37%30.36 "HgN/A
3:50 PM64 °FPassing clouds.9 mph40%30.36 "HgN/A
3:20 PM64 °FPassing clouds.9 mph40%30.36 "HgN/A
2:50 PM63 °FPassing clouds.9 mph34%30.36 "HgN/A
2:20 PM63 °FPassing clouds.8 mph39%30.36 "HgN/A
1:50 PM63 °FPassing clouds.8 mph37%30.39 "HgN/A
1:20 PM61 °FSunny.8 mph39%30.39 "Hg10 mi
12:50 PM61 °FPassing clouds.8 mph42%30.39 "HgN/A
12:20 PM61 °FPassing clouds.9 mph42%30.39 "HgN/A
11:50 AM59 °FPassing clouds.7 mph45%30.39 "HgN/A
11:20 AM57 °FPassing clouds.7 mph48%30.39 "HgN/A
10:50 AM57 °FSunny.3 mph55%30.36 "Hg10 mi
10:20 AM54 °FSunny.3 mph63%30.36 "Hg10 mi
9:50 AM52 °FSunny.3 mph67%30.36 "Hg10 mi
9:20 AM48 °FSunny.2 mph76%30.36 "Hg10 mi
8:50 AM46 °FSunny.3 mph76%30.36 "Hg10 mi
8:20 AM45 °FPassing clouds.5 mph76%30.36 "HgN/A
Weather by CustomWeather, © 2015

See weather overviewHow to use our weather pages